Regional Weather Roundup
Issued by NWS Newport/Morehead, NC

Current Version | Previous Version | Graphics & Text | Print | Product List | Glossary Off
Versions: 1 2 3 4 5 6 7 8 9 10 11 12 13 14 15 16 17 18 19 20 21 22 23 24 25 26 27 28 29 30 31 32 33 34 35 36 37 38 39 40 41 42 43 44 45 46 47 48 49 50

000
ASUS42 KMHX 241525
RWRMHX
WEATHER ROUNDUP FOR EASTERN NORTH CAROLINA
NATIONAL WEATHER SERVICE NEWPORT/MOREHEAD CITY NC
1100 AM EDT TUE APR 24 2018

NOTE: "FAIR" INDICATES FEW OR NO CLOUDS BELOW 12,000 FEET
WITH NO SIGNIFICANT WEATHER AND/OR OBSTRUCTIONS TO VISIBILITY

NCZ015>017-031-032-045>047-102-103-241600-
NORTH COAST

CITY           SKY/WX    TMP DP  RH WIND       PRES   REMARKS
EDENTON        LGT RAIN  62  59  90 E14G20    30.12F
ELIZABETH CITY LGT RAIN  60  59  96 E18G28    30.16S FOG
KITTY HAWK     LGT RAIN  56  55  97 E10G18    30.14F
MANTEO         CLOUDY    58  56  93 SE14G22   30.16S

$$

NCZ045>047-081-094-103-104-241600-
CENTRAL COAST

CITY           SKY/WX    TMP DP  RH WIND       PRES   REMARKS
FRISCO         RAIN      63  60  90 SE35G44   30.10F FOG

$$

NCZ095-097-098-100-101-241600-
SOUTHERN COAST

CITY           SKY/WX    TMP DP  RH WIND       PRES   REMARKS
BEAUFORT       LGT RAIN  63  62  97 E16G32    30.02F FOG
CEDAR ISLAND   NOT AVBL
JACKSONVILLE   RAIN      63  63 100 SE7       30.00S FOG
PINEY ISLAND   NOT AVBL
WILMINGTON     LGT RAIN  62  60  93 SE10      29.98S


$$

NCZ011>013-027>030-043-044-078>080-089-090>093-098-241600-
COASTAL PLAIN

CITY           SKY/WX    TMP DP  RH WIND       PRES   REMARKS
AHOSKIE        HVY RAIN  59  59 100 E6        30.11F
CLINTON        CLOUDY    61  61 100 E3        29.95F
ELIZABETHTOWN  CLOUDY    64  62  94 MISG      29.93F
GOLDSBORO      LGT RAIN  60  58  94 E16G29    29.92F
GREENVILLE     HVY RAIN  61  61 100 SE23G31   30.06F
HAVELOCK       LGT RAIN  64  63  96 SE26G38   30.03F
KENANSVILLE    LGT RAIN  61  59  94 E7        29.92F FOG
KINSTON        RAIN      59  59 100 E16G24    30.01F
NEW BERN       RAIN      60  60 100 E14G24    30.03F FOG
RICHLANDS      RAIN      61  60  97 S9        30.00S
ROCKY MOUNT    RAIN      59  58  96 E7        30.04F FOG
WASHINGTON     HVY RAIN  61  59  94 SE21G32   30.06F
WHITEVILLE     CLOUDY    67  64  91 E8        29.91F

$$

AMZ130-135-150-152-154-156-158-170-250-252-270-ANZ085-086-088-633-658-670-241600-
MARINE OBSERVATIONS

STATION/POSITION TIME  TEMP    WIND        PRES    WAVE   SWELL
                       AIR SEA DIR/SP/G            HT/PER HT/PER
                 (UTC) (F)     (DEG/KT/KT) (MB)    (FT/S) (FT/S)
CHESAPEAKE LIGHT NOT AVBL
64 E VA BEACH    1450   55 50  110/ 14/ 16 1023.4    8/ 7   5/14
DUCK             1500   56 54  100/ 21/ 24 1020.8
2 E DUCK         1430      52                N/A     6/ 8
OREGON INLET     1448   57 54   90/ 12/ 17 1020.7
13E OREGON INLT  1448      51                N/A    10/ 8   8/ 8
HATTERAS CG      1500   63 62  140/ 20/ 30 1018.8
DIAMOND BUOY     1510   66 72  120/ 29/ 39 1019.3
CAPE LOOKOUT     NOT AVBL
BEAUFORT LAB     1500   62 62  120/ 24/ 31 1016.6
30 SE NEW RVR IN 1508   65 65  140/ 19/ 29 1015.1
30 SE NEW RVR IN 1430      65                N/A    17/10   8/11
27 SE WRIGHTSVLE 1508   61 65  150/ 10/ 19 1015.4
5 SE WRIGHTSVLE  1408   62 61  160/ 12/ 19 1013.7
225 S CAPE HAT   1510   69 73  120/ 29/ 37 1017.3
41 SE CHARLESTON 1510      68  230/  6/ 10 1012.8

$$



USA.gov is the U.S. government's official web portal to all federal, state and local government web resources and services.